< < Back
Terminal Aerodrome Forecast


Current Version              Previous Versions:   1  2  3  4  5  6  7  8  9  

Terminal Aerodrome Forecast

892
FTUS42 KFFC 281739
TAFPDK
TAF
KPDK 281739Z 2818/0118 08011KT P6SM BKN100
     FM282100 07012KT P6SM SCT040 BKN090
     FM010300 08010KT P6SM SCT015 BKN035
     FM010600 08008KT 4SM -DZ BKN015
     FM011000 08012KT 2SM -RADZ OVC004
     FM011600 08008KT 4SM -RADZ OVC006=

Latest METAR

558
SAUS70 KWBC 010400 RRS
MTRPDK
METAR KPDK 010353Z AUTO VRB05G17KT 10SM OVC028 07/M03 A3056 RMK AO2
SLP358 T00671028


USA.gov is the U.S. government's official web portal to all federal, state and local government web resources and services.